Language selection

Weather shortcuts

Explorer - northwestern half: Past 24 Hour Conditions

 

Cape St.James

11:00 PM PDT 17 May 2024
Disclaimer

This table is a summary of hourly weather conditions for the past 24 hours.
Please note that these observations might not always be representative of weather conditions over their associated marine area.

Date / Time
(PDT)
Wind(knots) Conditions Visibility(km) Pressure(kPa) Air tempC) Relative humidity(%) Dew pointC)
17 May 2024
23:00 WNW 13 N/A N/A 102.1 7 86 4
22:00 WNW 18 N/A N/A 102.1 7 88 5
21:00 NW 15 N/A N/A 102.1 7 87 5
20:00 WNW 18 N/A N/A 102.1 7 86 5
19:00 WNW 19 N/A N/A 102.1 7 92 5
18:00 WNW 19 N/A N/A 102.2 7 81 4
17:00 WNW 22 N/A N/A 102.2 7 79 4
16:00 WNW 21 N/A N/A 102.2 7 83 4
15:00 WNW 24 N/A N/A 102.2 8 77 4
14:00 WNW 20 N/A N/A 102.2 8 78 4
13:00 NW 16 N/A N/A 102.2 8 81 5
12:00 NW 17 gusts 22 N/A N/A 102.2 8 77 4
11:00 NW 19 gusts 24 N/A N/A 102.2 7 83 4
10:00 NW 17 N/A N/A 102.2 7 80 4
9:00 NW 16 gusts 25 N/A N/A 102.2 7 74 3
8:00 NW 21 gusts 26 N/A N/A 102.2 7 72 3
7:00 NW 24 N/A N/A 102.1 7 73 3
6:00 NW 23 gusts 28 N/A N/A 102.1 7 79 4
5:00 NW 23 gusts 30 N/A N/A 102.1 7 80 4
4:00 NW 22 gusts 34 N/A N/A 102.0 7 79 4
3:00 NW 29 N/A N/A 102.0 7 79 4
2:00 NW 30 gusts 35 N/A N/A 102.0 7 78 4
1:00 NW 31 gusts 37 N/A N/A 101.9 8 82 5
0:00 NW 29 gusts 36 N/A N/A 101.9 8 80 5
16 May 2024
23:00 NW 32 N/A N/A 101.8 8 83 5

Zoom-in to make a selection

Map of Pacific - North Coast marine weather areas Middle Nomad - 46004 South Nomad - 46036 Dixon Entrance Central - 46145 South Moresby - 46147 Nanakwa Shoal - 46181 North Hecate Strait - 46183 North Nomad - 46184 South Hecate Strait - 46185 West Sea Otter - 46204 West Dixon Entrance - 46205 East Dellwood - 46207 West Moresby - 46208 Sartine Island Cape St.James Kindakun Rocks Langara Island Masset Municipal Airport Rose Spit Sandspit Airport Bella Bella Airport Bella Coola Airport Bonilla Island Cathedral Point Cumshewa Island Grey Islet Holland Rock Lucy Islands Lightstation Prince Rupert Airport
Legend:
buoy Buoy
land station Land Station

Pacific - North Coast Area

Another Region

Date modified: